Regional Weather Roundup
Issued by NWS

Home | Current Version | Previous Version | Graphics & Text | Print | Product List | Glossary On
Versions: 1 2 3 4 5 6 7 8 9 10 11 12 13 14 15 16 17 18 19 20 21 22 23 24 25 26 27 28 29 30 31 32 33 34 35 36 37 38 39 40 41 42 43 44 45 46 47 48 49 50
000
ASUS45 KSLC 201710
RWRUT

UTAH REGIONAL WEATHER ROUNDUP
NATIONAL WEATHER SERVICE SALT LAKE CITY UT
1000 AM MST SAT DEC 20 2014

UTZ001>011-023>025-201800-

NORTHERN UTAH

CITY           SKY/WX    TMP DP  RH WIND       PRES   REMARKS
BRIGHAM CITY   CLOUDY    39  35  85 CALM      30.12S
HILL AFB       CLOUDY    37  36  99 SE3       30.10S
LOGAN          CLOUDY    38  35  89 CALM      30.10R
OGDEN          CLOUDY    38  36  92 CALM      30.09F
PROVO AIRPORT  PTSUNNY   37  32  81 CALM      30.12S
SALT LAKE CITY CLOUDY    40  33  76 SE6       30.10F
VERNAL         PTSUNNY   30  23  75 CALM      30.17R
WENDOVER       CLOUDY    32  27  80 N3        30.10F
HEBER CITY     PTSUNNY   34  32  93 CALM      30.10S
WEST JORDAN    CLOUDY    39  36  87 S8        30.10F WCI  34

$$

UTZ012>022-026-027-201800-

SOUTHERN/CENTRAL UTAH

CITY           SKY/WX    TMP DP  RH WIND       PRES   REMARKS
BLANDING       MOSUNNY   30  29  96 CALM      30.27S
BRYCE CANYON   SUNNY     27  22  81 CALM      30.16R
CEDAR CITY     MOSUNNY   36  26  67 SW8       30.15R WCI  30
DELTA          MOSUNNY   39  30  72 S8        30.12S WCI  33
MILFORD        PTSUNNY   38  28  67 SW16      30.13R WCI  29
MOAB/CYNLANDS  CLOUDY    34  32  92 CALM      30.19S
PRICE          CLOUDY    29  24  82 SE3       30.17R
ST GEORGE      PTSUNNY   37  30  75 SW3       30.23R
KANAB          SUNNY     36  28  75 N5        30.23R WCI  32

$$

REGIONAL REPORTS     COLORADO/ARIZONA

CITY           SKY/WX    TMP DP  RH WIND       PRES   REMARKS
CRAIG, CO      LGT SNOW  26  22  84 CALM      30.13F FOG
GRAND JUNCTION CLOUDY    31  25  78 S5        30.20S WCI  26
RIFLE          CLOUDY    28  22  78 CALM      30.20S
MONTROSE       CLOUDY    30  22  72 NW5       30.21R WCI  25
CORTEZ         SUNNY     32  22  66 CALM      30.21R
PAGE, AZ       CLOUDY    39  29  67 SW7       30.21R WCI  34
GRAND CANYON   SUNNY     38  27  64 CALM      30.18R
KINGMAN        PTSUNNY   42  33  70 S3        30.19R
FLAGSTAFF      SUNNY     31  26  82 CALM      30.19R

$$

REGIONAL REPORTS    NEVADA/IDAHO/WYOMING

CITY           SKY/WX    TMP DP  RH WIND       PRES   REMARKS
LAS VEGAS, NV  CLOUDY    47  37  68 SW7       30.16R
ELY            CLOUDY    31  26  82 SE7       30.13R WCI  24
ELKO           LGT SNOW  33  32  96 S3        30.09R FOG
POCATELLO, ID  CLOUDY    37  34  89 S9        30.06R WCI  30
BURLEY         CLOUDY    38  31  76 SW12      30.05R WCI  30
EVANSTON, WY   CLOUDY    31  28  89 SW9       30.06F WCI  23
ROCK SPRINGS   CLOUDY    31  24  75 SW14      30.06S WCI  21
KEMMERER       CLOUDY    32  28  86 W8        30.05F WCI  25

$$


USA.gov is the U.S. government's official web portal to all federal, state and local government web resources and services.